FENGYUN 1C DEB, 31255

Orbit data source: Space-Track

FENGYUN 1C DEB, 31255 is space debris in SSO originally from a launch on Mon, 10 May 1999 UTC launched from the Taiyaun Space Center, China (TSC). Fengyun 1C debris stems from the Chinese weather satellite Fengyun-1C, which was intentionally destroyed by a Chinese anti-satellite missile in 2007. This event dramatically increased the amount of space debris, with thousands of trackable fragments posing hazards to satellites and human spaceflight. The Fengyun 1C debris cloud has become a focal point in discussions about space sustainability and the need for international regulations to prevent the creation of new debris.

Loading next visibility...
Identifier
31255, 1999-025BMM
Orbit
SSO
Country
Flag of CNCN / PRC
Related business
Manufacturer
Unknown
Mission
Spacecraft
Bus & Motor
Unknown
Mass
Unknown
Launch date (UTC)
1999-05-10 (27 years ago)
Launch vehicle
Unknown
Launch site
Taiyaun Space Center, China (TSC)
Object type
Payload
Rocket body
Debris
Shape & HBR
Unknown shape, 0.1 m
Radar Cross Section
Small (<0.1 m²)

Expand to show TLE details & history
Last TLE update: 8 hours ago

TLE from 8 hours ago
0 FENGYUN 1C DEB
1 31255U 99025BMM 25352.21076844  .00000589  00000-0  26071-3 0  9991
2 31255  99.3082 169.4895 0270478 328.2557  30.2545 14.09736319968781
Epoch: 2025-12-18T05:03Z
TLE epoch observation values (Epoch: 2025-12-18T05:03:30.393Z)
Latitude
-0.00008°
Longitude
6.54334°
Altitude
695.402 km
Speed
7.595 km/s
True Right ascension
11h 17m 57s
True Declination
0° 00' 00"
Sunlit
Object was in daylight at epoch
Visualization orbit readout
Latitude
Unknown
Longitude
Unknown
Altitude
Unknown
Speed
Unknown
Apparent Right ascension
Unknown
Apparent Declination
Unknown
Sunlit
N/A
Visualization observer readout
Local Sidereal Time
11:25:31
Azimuth
Unknown
Elevation
Unknown
Doppler factor
Unknown
Orbital elements
Apogee altitude
1,053.18 km
Perigee altitude
661.766 km
Semi-major axis
7,235.61 km
Eccentricity
0.02705
Inclination
99.3082°
RAAN
169.4895°
Arg. of periapsis
328.2557°
True anomaly
31.86284°
Mean anomaly
30.2545°
Eccentric anomaly
31.05392°
Mean motion
3.52639 °/min
Orbital period
102.09 mins
BSTAR
0.00026071
Loading maneuver chart data...
Computing Atmospheric mass density...

Documentation

Showing up to 5 results
|